Location: Dvur Kralove nad Labem
(50.4330°N, 15.8170°E)
Time: 22:05:49
(UTC+02:00)

ISS - Pass Details

Date: 29 May 2022
Orbit: 414 x 420 km, 51.6° (Epoch: 30 June)

Event Time Altitude Azimuth Distance (km) Brightness Sun altitude
Rises 21:36:41 0° 286° (WNW) 2,372 1.3 -5.7°
Reaches altitude 10° 21:38:56 10° 275° (W) 1,503 -0.1 -6.0°
Maximum altitude 21:41:56 30° 213° (SSW) 780 -2.5 -6.3°
Drops below altitude 10° 21:44:54 10° 150° (SSE) 1,491 -1.6 -6.7°
Enters shadow 21:45:13 - 148° (SSE) 1,603 -1.5 -6.7°
